Time,TemperatureF,DewpointF,PressureIn,WindDirection,WindDirectionDegrees,WindSpeedMPH,WindSpeedGustMPH,Humidity,HourlyPrecipIn,Conditions,Clouds,dailyrainin,SoftwareType,DateUTC
2013-09-26 00:00:00,59.6,43.9,29.78,NW,315,8.0,13.0,56,0.00,,---,0.00,VWS V14.01,2013-09-26 07:00:00,
2013-09-26 00:15:00,58.8,43.6,29.78,NW,315,8.0,18.0,57,0.00,,---,0.00,VWS V14.01,2013-09-26 07:15:00,
2013-09-26 00:30:00,58.2,43.1,29.78,NW,315,9.0,18.0,57,0.00,,---,0.00,VWS V14.01,2013-09-26 07:30:00,
2013-09-26 00:45:00,57.9,41.8,29.78,NW,315,11.0,21.0,55,0.00,,---,0.00,VWS V14.01,2013-09-26 07:45:00,
2013-09-26 01:00:00,58.0,41.9,29.77,NW,315,11.0,22.0,55,0.00,,---,0.00,VWS V14.01,2013-09-26 08:00:00,
2013-09-26 01:15:00,57.8,41.3,29.78,NNW,338,10.0,19.0,54,0.00,,---,0.00,VWS V14.01,2013-09-26 08:15:00,
2013-09-26 01:30:00,57.8,41.3,29.77,NNW,338,13.0,25.0,54,0.00,,---,0.00,VWS V14.01,2013-09-26 08:30:00,
2013-09-26 01:45:00,57.5,41.5,29.77,NNW,338,14.0,25.0,55,0.00,,---,0.00,VWS V14.01,2013-09-26 08:45:00,
2013-09-26 02:00:00,57.1,41.1,29.78,NNW,338,15.0,25.0,55,0.00,,---,0.00,VWS V14.01,2013-09-26 09:00:00,
2013-09-26 02:15:00,56.7,41.2,29.78,NNW,338,14.0,25.0,56,0.00,,---,0.00,VWS V14.01,2013-09-26 09:15:00,
2013-09-26 02:30:00,56.3,41.7,29.77,NNW,338,13.0,26.0,58,0.00,,---,0.00,VWS V14.01,2013-09-26 09:30:00,
2013-09-26 02:45:00,55.9,41.3,29.78,NNW,338,14.0,26.0,58,0.00,,---,0.00,VWS V14.01,2013-09-26 09:45:00,
2013-09-26 03:00:00,55.9,40.9,29.78,NNW,338,16.0,28.0,57,0.00,,---,0.00,VWS V14.01,2013-09-26 10:00:00,
2013-09-26 03:15:00,55.9,40.9,29.78,NNW,338,15.0,27.0,57,0.00,,---,0.00,VWS V14.01,2013-09-26 10:15:00,
2013-09-26 03:30:00,55.9,40.9,29.79,NNW,338,15.0,29.0,57,0.00,,---,0.00,VWS V14.01,2013-09-26 10:30:00,
2013-09-26 03:45:00,55.8,40.4,29.79,NNW,338,15.0,26.0,56,0.00,,---,0.00,VWS V14.01,2013-09-26 10:45:00,
2013-09-26 04:00:00,55.8,40.4,29.79,NNW,338,14.0,25.0,56,0.00,,---,0.00,VWS V14.01,2013-09-26 11:00:00,
2013-09-26 04:15:00,55.7,40.3,29.79,NNW,338,13.0,27.0,56,0.00,,---,0.00,VWS V14.01,2013-09-26 11:15:00,
2013-09-26 04:30:00,55.7,40.3,29.79,NNW,338,15.0,26.0,56,0.00,,---,0.00,VWS V14.01,2013-09-26 11:30:00,
2013-09-26 04:45:00,55.4,40.0,29.79,NNW,338,13.0,23.0,56,0.00,,---,0.00,VWS V14.01,2013-09-26 11:45:00,
2013-09-26 05:00:00,55.0,40.1,29.79,NNW,338,13.0,21.0,57,0.00,,---,0.00,VWS V14.01,2013-09-26 12:00:00,
2013-09-26 05:15:00,54.8,40.3,29.80,NNW,338,14.0,24.0,58,0.00,,---,0.00,VWS V14.01,2013-09-26 12:15:00,
2013-09-26 05:30:00,54.4,40.4,29.80,NNW,338,12.0,20.0,59,0.00,,---,0.00,VWS V14.01,2013-09-26 12:30:00,
2013-09-26 05:45:00,54.2,40.2,29.80,NNW,338,12.0,23.0,59,0.00,,---,0.00,VWS V14.01,2013-09-26 12:45:00,
2013-09-26 06:00:00,54.2,40.2,29.80,NNW,338,13.0,23.0,59,0.00,,---,0.00,VWS V14.01,2013-09-26 13:00:00,
2013-09-26 06:15:00,54.8,40.3,29.80,NNW,338,14.0,24.0,58,0.00,,---,0.00,VWS V14.01,2013-09-26 13:15:00,
2013-09-26 06:25:00,54.4,40.0,29.80,NNW,345,15.0,15.0,58,0.00,,---,0.00,VWS V14.01,2013-09-26 13:25:00,
2013-09-26 06:30:00,54.5,40.0,29.81,NNW,347,14.0,19.0,58,0.00,,---,0.00,VWS V14.01,2013-09-26 13:30:00,
2013-09-26 06:35:00,54.5,40.0,29.81,North,350,11.0,21.0,58,0.00,,---,0.00,VWS V14.01,2013-09-26 13:35:00,
2013-09-26 06:40:00,54.5,40.0,29.81,NNW,331,13.0,22.0,58,0.00,,---,0.00,VWS V14.01,2013-09-26 13:40:00,
2013-09-26 06:45:00,54.6,40.1,29.81,NNW,336,11.0,25.0,58,0.00,,---,0.00,VWS V14.01,2013-09-26 13:45:00,
2013-09-26 06:50:00,54.6,40.1,29.81,North,355,17.0,19.0,58,0.00,,---,0.00,VWS V14.01,2013-09-26 13:50:00,
2013-09-26 06:54:00,54.6,40.1,29.81,NNW,346,10.0,25.0,58,0.00,,---,0.00,VWS V14.01,2013-09-26 13:54:00,
2013-09-26 06:59:00,54.6,40.1,29.81,NNW,336,18.0,25.0,58,0.00,,---,0.00,VWS V14.01,2013-09-26 13:59:00,
2013-09-26 07:00:00,54.6,40.1,29.82,NNW,337,16.0,25.0,58,0.00,,---,0.00,VWS V14.01,2013-09-26 14:00:00,
2013-09-26 07:04:00,54.5,40.0,29.81,NNW,336,17.0,21.0,58,0.00,,---,0.00,VWS V14.01,2013-09-26 14:04:00,
2013-09-26 07:09:00,54.5,40.0,29.81,NW,323,13.0,25.0,58,0.00,,---,0.00,VWS V14.01,2013-09-26 14:09:00,
2013-09-26 07:14:00,54.5,40.0,29.81,NNW,338,11.0,25.0,58,0.00,,---,0.00,VWS V14.01,2013-09-26 14:14:00,
2013-09-26 07:15:00,54.5,40.0,29.81,NW,322,12.0,25.0,58,0.00,,---,0.00,VWS V14.01,2013-09-26 14:15:00,
2013-09-26 07:19:00,54.5,40.0,29.82,NNW,334,12.0,23.0,58,0.00,,---,0.00,VWS V14.01,2013-09-26 14:19:00,
2013-09-26 07:24:00,54.6,40.1,29.82,NNW,336,11.0,24.0,58,0.00,,---,0.00,VWS V14.01,2013-09-26 14:24:00,
2013-09-26 07:29:00,54.6,40.1,29.82,NNW,335,13.0,27.0,58,0.00,,---,0.00,VWS V14.01,2013-09-26 14:29:00,
2013-09-26 07:30:00,54.6,40.1,29.82,NNW,336,24.0,27.0,58,0.00,,---,0.00,VWS V14.01,2013-09-26 14:30:00,
2013-09-26 07:34:00,54.6,40.1,29.82,NNW,347,12.0,26.0,58,0.00,,---,0.00,VWS V14.01,2013-09-26 14:34:00,
2013-09-26 07:39:00,54.7,40.2,29.82,NNW,328,11.0,26.0,58,0.00,,---,0.00,VWS V14.01,2013-09-26 14:39:00,
2013-09-26 07:44:00,54.8,40.3,29.82,NW,316,15.0,26.0,58,0.00,,---,0.00,VWS V14.01,2013-09-26 14:44:00,
2013-09-26 07:45:00,54.8,40.3,29.82,NNW,346,11.0,26.0,58,0.00,,---,0.00,VWS V14.01,2013-09-26 14:45:00,
2013-09-26 07:49:00,54.8,40.3,29.82,NNW,336,13.0,20.0,58,0.00,,---,0.00,VWS V14.01,2013-09-26 14:49:00,
2013-09-26 07:54:00,54.9,40.4,29.82,North,349,14.0,24.0,58,0.00,,---,0.00,VWS V14.01,2013-09-26 14:54:00,
2013-09-26 07:59:00,55.1,40.2,29.82,NNW,338,17.0,29.0,57,0.00,,---,0.00,VWS V14.01,2013-09-26 14:59:00,
2013-09-26 08:00:00,55.1,40.2,29.82,NW,316,12.0,29.0,57,0.00,,---,0.00,VWS V14.01,2013-09-26 15:00:00,
2013-09-26 08:04:00,55.3,40.3,29.82,NNW,336,16.0,22.0,57,0.00,,---,0.00,VWS V14.01,2013-09-26 15:04:00,
2013-09-26 08:09:00,55.5,40.5,29.82,NNW,336,16.0,29.0,57,0.00,,---,0.00,VWS V14.01,2013-09-26 15:09:00,
2013-09-26 08:14:00,55.7,40.3,29.83,NNW,344,11.0,29.0,56,0.00,,---,0.00,VWS V14.01,2013-09-26 15:14:00,
2013-09-26 08:15:00,55.8,40.3,29.83,North,355,13.0,29.0,56,0.00,,---,0.00,VWS V14.01,2013-09-26 15:15:00,
2013-09-26 08:19:00,56.0,40.5,29.83,NW,323,11.0,21.0,56,0.00,,---,0.00,VWS V14.01,2013-09-26 15:19:00,
2013-09-26 08:24:00,56.3,40.4,29.83,NNW,344,13.0,27.0,55,0.00,,---,0.00,VWS V14.01,2013-09-26 15:24:00,
2013-09-26 08:29:00,56.6,40.6,29.83,NNW,347,16.0,27.0,55,0.00,,---,0.00,VWS V14.01,2013-09-26 15:29:00,
2013-09-26 08:30:00,56.7,40.3,29.83,NNW,339,22.0,27.0,54,0.00,,---,0.00,VWS V14.01,2013-09-26 15:30:00,
2013-09-26 08:34:00,56.8,40.3,29.84,North,355,19.0,22.0,54,0.00,,---,0.00,VWS V14.01,2013-09-26 15:34:00,
2013-09-26 08:39:00,57.2,40.2,29.84,NW,322,18.0,31.0,53,0.00,,---,0.00,VWS V14.01,2013-09-26 15:39:00,
2013-09-26 08:44:00,57.7,40.7,29.84,NW,309,14.0,31.0,53,0.00,,---,0.00,VWS V14.01,2013-09-26 15:44:00,
2013-09-26 08:45:00,57.8,40.8,29.84,NNW,341,25.0,31.0,53,0.00,,---,0.00,VWS V14.01,2013-09-26 15:45:00,
2013-09-26 08:50:00,58.1,40.6,29.84,NNW,329,12.0,25.0,52,0.00,,---,0.00,VWS V14.01,2013-09-26 15:50:00,
2013-09-26 08:55:00,58.6,41.0,29.84,North,350,17.0,29.0,52,0.00,,---,0.00,VWS V14.01,2013-09-26 15:55:00,
2013-09-26 09:00:00,59.1,41.0,29.84,NNW,339,14.0,31.0,51,0.00,,---,0.00,VWS V14.01,2013-09-26 16:00:00,
2013-09-26 09:05:00,59.5,41.4,29.85,NNW,333,15.0,23.0,51,0.00,,---,0.00,VWS V14.01,2013-09-26 16:05:00,
2013-09-26 09:10:00,60.0,41.8,29.85,NNW,339,16.0,24.0,51,0.00,,---,0.00,VWS V14.01,2013-09-26 16:10:00,
2013-09-26 09:15:00,60.4,41.2,29.85,NNW,337,12.0,25.0,49,0.00,,---,0.00,VWS V14.01,2013-09-26 16:15:00,
2013-09-26 09:20:00,60.8,42.1,29.85,NNW,348,18.0,20.0,50,0.00,,---,0.00,VWS V14.01,2013-09-26 16:20:00,
2013-09-26 09:25:00,61.3,42.0,29.85,NW,325,11.0,23.0,49,0.00,,---,0.00,VWS V14.01,2013-09-26 16:25:00,
2013-09-26 09:30:00,61.7,42.4,29.85,NNW,341,15.0,24.0,49,0.00,,---,0.00,VWS V14.01,2013-09-26 16:30:00,
2013-09-26 09:35:00,62.2,41.7,29.85,NW,314,14.0,23.0,47,0.00,,---,0.00,VWS V14.01,2013-09-26 16:35:00,
2013-09-26 09:40:00,62.7,42.8,29.85,NNW,332,14.0,23.0,48,0.00,,---,0.00,VWS V14.01,2013-09-26 16:40:00,
2013-09-26 09:45:00,63.2,42.7,29.85,NNW,340,23.0,24.0,47,0.00,,---,0.00,VWS V14.01,2013-09-26 16:45:00,
2013-09-26 09:50:00,63.6,42.5,29.85,NW,323,18.0,21.0,46,0.00,,---,0.00,VWS V14.01,2013-09-26 16:50:00,
2013-09-26 09:55:00,64.0,42.3,29.85,NNW,333,12.0,30.0,45,0.00,,---,0.00,VWS V14.01,2013-09-26 16:55:00,
2013-09-26 10:00:00,64.2,41.8,29.86,NW,319,21.0,30.0,44,0.00,,---,0.00,VWS V14.01,2013-09-26 17:00:00,
2013-09-26 10:05:00,64.4,42.6,29.86,NNW,327,24.0,26.0,45,0.00,,---,0.00,VWS V14.01,2013-09-26 17:05:00,
2013-09-26 10:10:00,64.8,42.4,29.86,NNW,342,12.0,26.0,44,0.00,,---,0.00,VWS V14.01,2013-09-26 17:10:00,
2013-09-26 10:15:00,65.2,41.5,29.85,NNW,348,15.0,31.0,42,0.00,,---,0.00,VWS V14.01,2013-09-26 17:15:00,
2013-09-26 10:20:00,65.4,41.7,29.86,NNW,342,18.0,24.0,42,0.00,,---,0.00,VWS V14.01,2013-09-26 17:20:00,
2013-09-26 10:25:00,65.7,42.6,29.86,NNW,337,16.0,25.0,43,0.00,,---,0.00,VWS V14.01,2013-09-26 17:25:00,
2013-09-26 10:30:00,66.0,42.9,29.86,NNW,348,18.0,25.0,43,0.00,,---,0.00,VWS V14.01,2013-09-26 17:30:00,
2013-09-26 10:35:00,66.3,43.2,29.86,NNW,342,9.0,23.0,43,0.00,,---,0.00,VWS V14.01,2013-09-26 17:35:00,
2013-09-26 10:39:00,66.7,42.9,29.86,NW,313,14.0,26.0,42,0.00,,---,0.00,VWS V14.01,2013-09-26 17:39:00,
2013-09-26 10:44:00,67.0,42.5,29.86,NNW,338,10.0,26.0,41,0.00,,---,0.00,VWS V14.01,2013-09-26 17:44:00,
2013-09-26 10:45:00,67.0,42.5,29.86,NW,325,15.0,26.0,41,0.00,,---,0.00,VWS V14.01,2013-09-26 17:45:00,
2013-09-26 10:49:00,67.2,42.7,29.86,NNW,346,10.0,18.0,41,0.00,,---,0.00,VWS V14.01,2013-09-26 17:49:00,
2013-09-26 10:54:00,67.4,42.9,29.86,NW,326,18.0,25.0,41,0.00,,---,0.00,VWS V14.01,2013-09-26 17:54:00,
2013-09-26 10:59:00,67.6,42.4,29.86,NNW,346,15.0,25.0,40,0.00,,---,0.00,VWS V14.01,2013-09-26 17:59:00,
2013-09-26 11:00:00,67.7,42.5,29.86,NNW,334,18.0,25.0,40,0.00,,---,0.00,VWS V14.01,2013-09-26 18:00:00,
2013-09-26 11:04:00,67.9,42.7,29.86,North,5,13.0,29.0,40,0.00,,---,0.00,VWS V14.01,2013-09-26 18:04:00,
2013-09-26 11:10:00,68.2,41.7,29.86,NW,317,19.0,29.0,38,0.00,,---,0.00,VWS V14.01,2013-09-26 18:10:00,
2013-09-26 11:15:00,68.4,42.5,29.86,NW,313,19.0,29.0,39,0.00,,---,0.00,VWS V14.01,2013-09-26 18:15:00,
2013-09-26 11:20:00,68.6,42.7,29.86,North,355,16.0,30.0,39,0.00,,---,0.00,VWS V14.01,2013-09-26 18:20:00,
2013-09-26 11:25:00,68.7,42.1,29.86,NW,326,14.0,30.0,38,0.00,,---,0.00,VWS V14.01,2013-09-26 18:25:00,
2013-09-26 11:30:00,69.0,42.4,29.86,NNW,340,13.0,30.0,38,0.00,,---,0.00,VWS V14.01,2013-09-26 18:30:00,
2013-09-26 11:35:00,69.5,42.1,29.86,NNW,345,20.0,24.0,37,0.00,,---,0.00,VWS V14.01,2013-09-26 18:35:00,
2013-09-26 11:40:00,69.9,42.5,29.86,NNW,338,13.0,24.0,37,0.00,,---,0.00,VWS V14.01,2013-09-26 18:40:00,
2013-09-26 11:45:00,70.3,41.4,29.86,NNW,334,8.0,24.0,35,0.00,,---,0.00,VWS V14.01,2013-09-26 18:45:00,
2013-09-26 11:50:00,70.5,43.0,29.86,NW,311,16.0,26.0,37,0.00,,---,0.00,VWS V14.01,2013-09-26 18:50:00,
2013-09-26 11:55:00,70.8,41.8,29.86,NW,324,17.0,26.0,35,0.00,,---,0.00,VWS V14.01,2013-09-26 18:55:00,
2013-09-26 12:00:00,70.9,42.6,29.86,North,349,15.0,26.0,36,0.00,,---,0.00,VWS V14.01,2013-09-26 19:00:00,
2013-09-26 12:05:00,71.3,43.0,29.86,NNW,327,9.0,18.0,36,0.00,,---,0.00,VWS V14.01,2013-09-26 19:05:00,
2013-09-26 12:10:00,71.7,43.3,29.86,NNW,342,12.0,20.0,36,0.00,,---,0.00,VWS V14.01,2013-09-26 19:10:00,
2013-09-26 12:15:00,71.9,42.0,29.86,NNW,343,9.0,24.0,34,0.00,,---,0.00,VWS V14.01,2013-09-26 19:15:00,
2013-09-26 12:20:00,72.1,42.2,29.86,NW,323,13.0,18.0,34,0.00,,---,0.00,VWS V14.01,2013-09-26 19:20:00,
2013-09-26 12:25:00,72.2,42.3,29.85,North,355,8.0,20.0,34,0.00,,---,0.00,VWS V14.01,2013-09-26 19:25:00,
2013-09-26 12:30:00,72.3,41.6,29.85,NNW,338,14.0,23.0,33,0.00,,---,0.00,VWS V14.01,2013-09-26 19:30:00,
2013-09-26 12:45:00,72.2,43.1,29.85,NW,315,14.0,25.0,35,0.00,,---,0.00,VWS V14.01,2013-09-26 19:45:00,
2013-09-26 13:00:00,73.2,42.4,29.85,NNW,338,13.0,23.0,33,0.00,,---,0.00,VWS V14.01,2013-09-26 20:00:00,
2013-09-26 13:15:00,72.0,43.6,29.86,NNW,335,13.0,24.0,36,0.00,,---,0.00,VWS V14.01,2013-09-26 20:15:00,
2013-09-26 13:21:00,73.4,41.8,29.84,NW,318,10.0,14.0,32,0.00,,---,0.00,VWS V14.01,2013-09-26 20:21:00,
2013-09-26 13:26:00,73.3,43.3,29.84,NNW,327,10.0,18.0,34,0.00,,---,0.00,VWS V14.01,2013-09-26 20:26:00,
2013-09-26 13:30:00,73.5,41.9,29.84,NW,318,11.0,24.0,32,0.00,,---,0.00,VWS V14.01,2013-09-26 20:30:00,
2013-09-26 13:31:00,73.5,41.9,29.84,NNW,346,7.0,24.0,32,0.00,,---,0.00,VWS V14.01,2013-09-26 20:31:00,
2013-09-26 13:36:00,73.8,42.1,29.84,NNW,331,11.0,17.0,32,0.00,,---,0.00,VWS V14.01,2013-09-26 20:36:00,
2013-09-26 13:41:00,74.1,39.8,29.83,NNW,330,15.0,22.0,29,0.00,,---,0.00,VWS V14.01,2013-09-26 20:41:00,
2013-09-26 13:45:00,74.3,39.1,29.84,North,351,12.0,22.0,28,0.00,,---,0.00,VWS V14.01,2013-09-26 20:45:00,
2013-09-26 13:46:00,74.3,39.1,29.84,North,351,12.0,22.0,28,0.00,,---,0.00,VWS V14.01,2013-09-26 20:46:00,
2013-09-26 13:51:00,74.5,41.1,29.84,NNW,336,11.0,23.0,30,0.00,,---,0.00,VWS V14.01,2013-09-26 20:51:00,
2013-09-26 13:56:00,74.6,40.3,29.84,NNW,342,14.0,24.0,29,0.00,,---,0.00,VWS V14.01,2013-09-26 20:56:00,
2013-09-26 14:00:00,74.6,41.2,29.83,NW,309,17.0,24.0,30,0.00,,---,0.00,VWS V14.01,2013-09-26 21:00:00,
2013-09-26 14:01:00,74.6,41.2,29.83,NW,304,23.0,23.0,30,0.00,,---,0.00,VWS V14.01,2013-09-26 21:01:00,
2013-09-26 14:06:00,74.7,42.1,29.83,NW,324,9.0,24.0,31,0.00,,---,0.00,VWS V14.01,2013-09-26 21:06:00,
2013-09-26 14:11:00,74.8,40.5,29.83,NNW,333,18.0,24.0,29,0.00,,---,0.00,VWS V14.01,2013-09-26 21:11:00,
2013-09-26 14:15:00,74.9,41.4,29.83,NNW,340,7.0,24.0,30,0.00,,---,0.00,VWS V14.01,2013-09-26 21:15:00,
2013-09-26 14:16:00,74.9,41.4,29.83,NNW,340,7.0,24.0,30,0.00,,---,0.00,VWS V14.01,2013-09-26 21:16:00,
2013-09-26 14:21:00,75.0,39.7,29.83,NNW,340,13.0,25.0,28,0.00,,---,0.00,VWS V14.01,2013-09-26 21:21:00,
2013-09-26 14:26:00,75.2,39.0,29.83,NNW,345,15.0,25.0,27,0.00,,---,0.00,VWS V14.01,2013-09-26 21:26:00,
2013-09-26 14:30:00,75.3,40.9,29.83,NNW,342,10.0,25.0,29,0.00,,---,0.00,VWS V14.01,2013-09-26 21:30:00,
2013-09-26 14:31:00,75.3,40.9,29.83,NNW,342,10.0,25.0,29,0.00,,---,0.00,VWS V14.01,2013-09-26 21:31:00,
2013-09-26 14:36:00,75.5,41.9,29.83,NNW,338,12.0,18.0,30,0.00,,---,0.00,VWS V14.01,2013-09-26 21:36:00,
2013-09-26 14:41:00,75.7,41.2,29.83,NNW,329,12.0,20.0,29,0.00,,---,0.00,VWS V14.01,2013-09-26 21:41:00,
2013-09-26 14:45:00,75.8,41.3,29.83,NNW,338,11.0,25.0,29,0.00,,---,0.00,VWS V14.01,2013-09-26 21:45:00,
2013-09-26 14:46:00,75.8,41.3,29.83,NNW,338,11.0,25.0,29,0.00,,---,0.00,VWS V14.01,2013-09-26 21:46:00,
2013-09-26 14:51:00,76.0,40.6,29.82,North,5,14.0,22.0,28,0.00,,---,0.00,VWS V14.01,2013-09-26 21:51:00,
2013-09-26 14:56:00,76.1,41.6,29.82,NW,323,10.0,22.0,29,0.00,,---,0.00,VWS V14.01,2013-09-26 21:56:00,
2013-09-26 15:00:00,76.1,42.5,29.82,North,5,8.0,23.0,30,0.00,,---,0.00,VWS V14.01,2013-09-26 22:00:00,
2013-09-26 15:01:00,76.1,42.5,29.82,NNW,345,17.0,23.0,30,0.00,,---,0.00,VWS V14.01,2013-09-26 22:01:00,
2013-09-26 15:06:00,76.2,40.8,29.82,NW,308,20.0,23.0,28,0.00,,---,0.00,VWS V14.01,2013-09-26 22:06:00,
2013-09-26 15:11:00,76.2,40.8,29.82,NNW,344,11.0,23.0,28,0.00,,---,0.00,VWS V14.01,2013-09-26 22:11:00,
2013-09-26 15:15:00,76.3,40.8,29.82,NNW,343,16.0,23.0,28,0.00,,---,0.00,VWS V14.01,2013-09-26 22:15:00,
2013-09-26 15:16:00,76.3,40.8,29.82,NNW,346,11.0,23.0,28,0.00,,---,0.00,VWS V14.01,2013-09-26 22:16:00,
2013-09-26 15:21:00,76.4,40.0,29.83,NNW,348,20.0,20.0,27,0.00,,---,0.00,VWS V14.01,2013-09-26 22:21:00,
2013-09-26 15:26:00,76.6,40.2,29.83,NW,312,14.0,20.0,27,0.00,,---,0.00,VWS V14.01,2013-09-26 22:26:00,
2013-09-26 15:30:00,76.7,41.2,29.82,NW,324,9.0,20.0,28,0.00,,---,0.00,VWS V14.01,2013-09-26 22:30:00,
2013-09-26 15:31:00,76.7,41.2,29.82,NNW,333,13.0,20.0,28,0.00,,---,0.00,VWS V14.01,2013-09-26 22:31:00,
2013-09-26 15:36:00,76.9,41.3,29.82,NNW,341,5.0,20.0,28,0.00,,---,0.00,VWS V14.01,2013-09-26 22:36:00,
2013-09-26 15:41:00,77.1,39.6,29.82,NNW,331,12.0,20.0,26,0.00,,---,0.00,VWS V14.01,2013-09-26 22:41:00,
2013-09-26 15:45:00,77.1,40.6,29.82,NNW,346,7.0,20.0,27,0.00,,---,0.00,VWS V14.01,2013-09-26 22:45:00,
2013-09-26 15:46:00,77.1,40.6,29.82,NNW,343,11.0,20.0,27,0.00,,---,0.00,VWS V14.01,2013-09-26 22:46:00,
2013-09-26 15:51:00,77.3,39.8,29.82,NNW,334,10.0,21.0,26,0.00,,---,0.00,VWS V14.01,2013-09-26 22:51:00,
2013-09-26 15:56:00,77.1,40.6,29.82,NW,319,15.0,21.0,27,0.00,,---,0.00,VWS V14.01,2013-09-26 22:56:00,
2013-09-26 16:00:00,76.9,39.4,29.81,North,355,10.0,21.0,26,0.00,,---,0.00,VWS V14.01,2013-09-26 23:00:00,
2013-09-26 16:01:00,77.0,39.5,29.81,North,360,9.0,21.0,26,0.00,,---,0.00,VWS V14.01,2013-09-26 23:01:00,
2013-09-26 16:06:00,76.8,40.3,29.82,NNW,338,8.0,16.0,27,0.00,,---,0.00,VWS V14.01,2013-09-26 23:06:00,
2013-09-26 16:11:00,76.7,40.2,29.81,North,355,7.0,21.0,27,0.00,,---,0.00,VWS V14.01,2013-09-26 23:11:00,
2013-09-26 16:15:00,76.6,40.2,29.81,NW,304,12.0,21.0,27,0.00,,---,0.00,VWS V14.01,2013-09-26 23:15:00,
2013-09-26 16:16:00,76.6,40.2,29.81,NW,309,13.0,21.0,27,0.00,,---,0.00,VWS V14.01,2013-09-26 23:16:00,
2013-09-26 16:21:00,76.5,41.0,29.81,NNW,329,7.0,16.0,28,0.00,,---,0.00,VWS V14.01,2013-09-26 23:21:00,
2013-09-26 16:26:00,76.5,40.1,29.81,NNW,333,8.0,16.0,27,0.00,,---,0.00,VWS V14.01,2013-09-26 23:26:00,
2013-09-26 16:30:00,76.6,39.2,29.82,NW,317,15.0,17.0,26,0.00,,---,0.00,VWS V14.01,2013-09-26 23:30:00,
2013-09-26 16:31:00,76.6,39.2,29.82,NNW,338,12.0,16.0,26,0.00,,---,0.00,VWS V14.01,2013-09-26 23:31:00,
2013-09-26 16:36:00,76.5,38.1,29.81,NW,314,14.0,18.0,25,0.00,,---,0.00,VWS V14.01,2013-09-26 23:36:00,
2013-09-26 16:41:00,76.4,38.0,29.81,North,355,9.0,18.0,25,0.00,,---,0.00,VWS V14.01,2013-09-26 23:41:00,
2013-09-26 16:45:00,76.2,37.8,29.81,NNW,335,16.0,18.0,25,0.00,,---,0.00,VWS V14.01,2013-09-26 23:45:00,
2013-09-26 16:46:00,76.2,37.8,29.81,NNW,333,10.0,18.0,25,0.00,,---,0.00,VWS V14.01,2013-09-26 23:46:00,
2013-09-26 16:51:00,75.9,37.6,29.81,NNW,340,9.0,19.0,25,0.00,,---,0.00,VWS V14.01,2013-09-26 23:51:00,
2013-09-26 16:56:00,75.6,38.3,29.81,NNW,340,11.0,22.0,26,0.00,,---,0.00,VWS V14.01,2013-09-26 23:56:00,
2013-09-26 17:00:00,75.2,39.0,29.81,North,355,10.0,22.0,27,0.00,,---,0.00,VWS V14.01,2013-09-27 00:00:00,
2013-09-26 17:01:00,75.2,39.0,29.81,NNW,332,11.0,22.0,27,0.00,,---,0.00,VWS V14.01,2013-09-27 00:01:00,
2013-09-26 17:06:00,75.0,38.8,29.81,NNW,329,14.0,16.0,27,0.00,,---,0.00,VWS V14.01,2013-09-27 00:06:00,
2013-09-26 17:11:00,74.8,39.5,29.82,North,355,12.0,18.0,28,0.00,,---,0.00,VWS V14.01,2013-09-27 00:11:00,
2013-09-26 17:15:00,74.6,39.4,29.82,NNW,340,15.0,21.0,28,0.00,,---,0.00,VWS V14.01,2013-09-27 00:15:00,
2013-09-26 17:16:00,74.6,39.4,29.82,NNW,336,14.0,21.0,28,0.00,,---,0.00,VWS V14.01,2013-09-27 00:16:00,
2013-09-26 17:21:00,74.4,39.2,29.82,North,355,6.0,19.0,28,0.00,,---,0.00,VWS V14.01,2013-09-27 00:21:00,
2013-09-26 17:26:00,74.2,38.1,29.82,NW,325,14.0,19.0,27,0.00,,---,0.00,VWS V14.01,2013-09-27 00:26:00,
2013-09-26 17:30:00,74.0,37.9,29.82,NNW,338,18.0,21.0,27,0.00,,---,0.00,VWS V14.01,2013-09-27 00:30:00,
2013-09-26 17:31:00,74.0,37.9,29.82,North,349,15.0,21.0,27,0.00,,---,0.00,VWS V14.01,2013-09-27 00:31:00,
2013-09-26 17:36:00,73.8,37.8,29.82,NNW,345,14.0,23.0,27,0.00,,---,0.00,VWS V14.01,2013-09-27 00:36:00,
2013-09-26 17:41:00,73.5,37.5,29.83,NNW,345,12.0,23.0,27,0.00,,---,0.00,VWS V14.01,2013-09-27 00:41:00,
2013-09-26 17:45:00,73.3,38.3,29.83,NNW,340,11.0,23.0,28,0.00,,---,0.00,VWS V14.01,2013-09-27 00:45:00,
2013-09-26 17:46:00,73.3,38.3,29.83,NNW,344,11.0,23.0,28,0.00,,---,0.00,VWS V14.01,2013-09-27 00:46:00,
2013-09-26 17:51:00,73.1,38.1,29.82,NNW,348,13.0,18.0,28,0.00,,---,0.00,VWS V14.01,2013-09-27 00:51:00,
2013-09-26 17:56:00,72.9,38.8,29.82,NNW,340,10.0,20.0,29,0.00,,---,0.00,VWS V14.01,2013-09-27 00:56:00,
2013-09-26 18:00:00,72.6,39.4,29.82,NNW,338,16.0,20.0,30,0.00,,---,0.00,VWS V14.01,2013-09-27 01:00:00,
2013-09-26 18:01:00,72.6,39.4,29.82,NNW,337,18.0,20.0,30,0.00,,---,0.00,VWS V14.01,2013-09-27 01:01:00,
2013-09-26 18:06:00,72.4,39.2,29.82,NNW,338,7.0,17.0,30,0.00,,---,0.00,VWS V14.01,2013-09-27 01:06:00,
2013-09-26 18:11:00,72.1,39.8,29.83,North,360,7.0,18.0,31,0.00,,---,0.00,VWS V14.01,2013-09-27 01:11:00,
2013-09-26 18:15:00,71.9,39.7,29.83,NNW,344,10.0,19.0,31,0.00,,---,0.00,VWS V14.01,2013-09-27 01:15:00,
2013-09-26 18:16:00,71.9,39.7,29.83,NW,323,17.0,19.0,31,0.00,,---,0.00,VWS V14.01,2013-09-27 01:16:00,
2013-09-26 18:21:00,71.6,39.4,29.83,NNW,336,19.0,21.0,31,0.00,,---,0.00,VWS V14.01,2013-09-27 01:21:00,
2013-09-26 18:26:00,71.3,39.1,29.83,NNW,345,9.0,21.0,31,0.00,,---,0.00,VWS V14.01,2013-09-27 01:26:00,
2013-09-26 18:30:00,71.1,39.0,29.83,NNW,341,11.0,21.0,31,0.00,,---,0.00,VWS V14.01,2013-09-27 01:30:00,
2013-09-26 18:31:00,71.1,39.0,29.83,NNW,340,9.0,21.0,31,0.00,,---,0.00,VWS V14.01,2013-09-27 01:31:00,
2013-09-26 18:36:00,70.8,38.7,29.83,NNW,344,10.0,18.0,31,0.00,,---,0.00,VWS V14.01,2013-09-27 01:36:00,
2013-09-26 18:41:00,70.5,38.4,29.84,NNW,338,5.0,18.0,31,0.00,,---,0.00,VWS V14.01,2013-09-27 01:41:00,
2013-09-26 18:45:00,70.2,39.0,29.84,NNW,331,15.0,18.0,32,0.00,,---,0.00,VWS V14.01,2013-09-27 01:45:00,
2013-09-26 18:46:00,70.2,39.0,29.84,NNW,327,10.0,18.0,32,0.00,,---,0.00,VWS V14.01,2013-09-27 01:46:00,
2013-09-26 18:51:00,69.9,38.7,29.84,NW,323,10.0,15.0,32,0.00,,---,0.00,VWS V14.01,2013-09-27 01:51:00,
2013-09-26 18:56:00,69.6,38.5,29.84,NNW,340,9.0,15.0,32,0.00,,---,0.00,VWS V14.01,2013-09-27 01:56:00,
2013-09-26 19:00:00,69.3,39.0,29.85,NNW,336,8.0,15.0,33,0.00,,---,0.00,VWS V14.01,2013-09-27 02:00:00,
2013-09-26 19:01:00,69.4,39.1,29.85,North,9,5.0,15.0,33,0.00,,---,0.00,VWS V14.01,2013-09-27 02:01:00,
2013-09-26 19:06:00,69.1,38.8,29.85,NNW,335,10.0,12.0,33,0.00,,---,0.00,VWS V14.01,2013-09-27 02:06:00,
2013-09-26 19:11:00,68.8,38.5,29.85,NNW,336,5.0,12.0,33,0.00,,---,0.00,VWS V14.01,2013-09-27 02:11:00,
2013-09-26 19:15:00,68.5,38.3,29.85,North,355,12.0,13.0,33,0.00,,---,0.00,VWS V14.01,2013-09-27 02:15:00,
2013-09-26 19:16:00,68.5,38.3,29.85,North,355,10.0,13.0,33,0.00,,---,0.00,VWS V14.01,2013-09-27 02:16:00,
2013-09-26 19:21:00,68.3,38.1,29.85,NNW,333,9.0,14.0,33,0.00,,---,0.00,VWS V14.01,2013-09-27 02:21:00,
2013-09-26 19:26:00,68.0,37.8,29.85,NW,319,10.0,15.0,33,0.00,,---,0.00,VWS V14.01,2013-09-27 02:26:00,
2013-09-26 19:30:00,67.8,37.7,29.85,NNW,329,11.0,17.0,33,0.00,,---,0.00,VWS V14.01,2013-09-27 02:30:00,
2013-09-26 19:31:00,67.8,37.7,29.85,NNW,332,7.0,17.0,33,0.00,,---,0.00,VWS V14.01,2013-09-27 02:31:00,
2013-09-26 19:36:00,67.6,37.5,29.85,NNW,337,7.0,16.0,33,0.00,,---,0.00,VWS V14.01,2013-09-27 02:36:00,
2013-09-26 19:41:00,67.5,37.4,29.85,NNW,336,9.0,16.0,33,0.00,,---,0.00,VWS V14.01,2013-09-27 02:41:00,
2013-09-26 19:45:00,67.3,38.0,29.86,NNW,335,10.0,16.0,34,0.00,,---,0.00,VWS V14.01,2013-09-27 02:45:00,
2013-09-26 19:46:00,67.3,38.0,29.86,NNW,337,6.0,16.0,34,0.00,,---,0.00,VWS V14.01,2013-09-27 02:46:00,
2013-09-26 19:51:00,67.1,37.8,29.86,NW,325,9.0,17.0,34,0.00,,---,0.00,VWS V14.01,2013-09-27 02:51:00,
2013-09-26 19:56:00,67.0,37.7,29.86,NNW,338,7.0,17.0,34,0.00,,---,0.00,VWS V14.01,2013-09-27 02:56:00,
2013-09-26 20:00:00,66.8,37.6,29.86,NNW,338,6.0,17.0,34,0.00,,---,0.00,VWS V14.01,2013-09-27 03:00:00,
2013-09-26 20:01:00,66.8,37.6,29.86,NNW,329,8.0,17.0,34,0.00,,---,0.00,VWS V14.01,2013-09-27 03:01:00,
2013-09-26 20:06:00,66.7,37.5,29.86,NW,319,8.0,14.0,34,0.00,,---,0.00,VWS V14.01,2013-09-27 03:06:00,
2013-09-26 20:11:00,66.5,37.3,29.86,NNW,338,8.0,14.0,34,0.00,,---,0.00,VWS V14.01,2013-09-27 03:11:00,
2013-09-26 20:15:00,66.4,37.2,29.86,NNW,339,6.0,15.0,34,0.00,,---,0.00,VWS V14.01,2013-09-27 03:15:00,
2013-09-26 20:16:00,66.4,37.2,29.86,NNW,337,8.0,15.0,34,0.00,,---,0.00,VWS V14.01,2013-09-27 03:16:00,
2013-09-26 20:21:00,66.3,37.1,29.87,North,355,10.0,12.0,34,0.00,,---,0.00,VWS V14.01,2013-09-27 03:21:00,
2013-09-26 20:26:00,66.2,37.0,29.87,NNW,336,6.0,18.0,34,0.00,,---,0.00,VWS V14.01,2013-09-27 03:26:00,
2013-09-26 20:30:00,66.1,37.7,29.87,NW,311,14.0,18.0,35,0.00,,---,0.00,VWS V14.01,2013-09-27 03:30:00,
2013-09-26 20:31:00,66.1,37.7,29.87,NNW,338,7.0,18.0,35,0.00,,---,0.00,VWS V14.01,2013-09-27 03:31:00,
2013-09-26 20:36:00,66.1,37.7,29.88,NNW,347,7.0,14.0,35,0.00,,---,0.00,VWS V14.01,2013-09-27 03:36:00,
2013-09-26 20:41:00,65.9,37.5,29.88,NNW,340,6.0,14.0,35,0.00,,---,0.00,VWS V14.01,2013-09-27 03:41:00,
2013-09-26 20:45:00,65.7,37.3,29.88,North,349,6.0,14.0,35,0.00,,---,0.00,VWS V14.01,2013-09-27 03:45:00,
2013-09-26 20:46:00,65.7,37.3,29.88,NNW,335,9.0,14.0,35,0.00,,---,0.00,VWS V14.01,2013-09-27 03:46:00,
2013-09-26 20:51:00,65.6,37.2,29.88,NNW,336,7.0,13.0,35,0.00,,---,0.00,VWS V14.01,2013-09-27 03:51:00,
2013-09-26 20:56:00,65.4,37.8,29.88,NW,321,8.0,15.0,36,0.00,,---,0.00,VWS V14.01,2013-09-27 03:56:00,
2013-09-26 21:00:00,65.2,37.6,29.88,NNW,330,13.0,15.0,36,0.00,,---,0.00,VWS V14.01,2013-09-27 04:00:00,
2013-09-26 21:01:00,65.2,36.9,29.88,NNW,339,5.0,15.0,35,0.00,,---,0.00,VWS V14.01,2013-09-27 04:01:00,
2013-09-26 21:06:00,65.0,37.4,29.88,NNW,345,5.0,13.0,36,0.00,,---,0.00,VWS V14.01,2013-09-27 04:06:00,
2013-09-26 21:12:00,65.0,37.4,29.88,NNW,333,10.0,13.0,36,0.00,,---,0.00,VWS V14.01,2013-09-27 04:12:00,
2013-09-26 21:15:00,64.9,36.6,29.88,NW,325,8.0,13.0,35,0.00,,---,0.00,VWS V14.01,2013-09-27 04:15:00,
2013-09-26 21:17:00,64.9,36.6,29.89,NW,325,7.0,8.0,35,0.00,,---,0.00,VWS V14.01,2013-09-27 04:17:00,
2013-09-26 21:22:00,64.9,37.3,29.89,NNW,329,8.0,12.0,36,0.00,,---,0.00,VWS V14.01,2013-09-27 04:22:00,
2013-09-26 21:27:00,64.8,37.2,29.89,NW,308,12.0,13.0,36,0.00,,---,0.00,VWS V14.01,2013-09-27 04:27:00,
2013-09-26 21:30:00,64.8,36.5,29.89,NNW,332,11.0,18.0,35,0.00,,---,0.00,VWS V14.01,2013-09-27 04:30:00,
2013-09-26 21:32:00,64.8,36.5,29.89,NNW,334,9.0,12.0,35,0.00,,---,0.00,VWS V14.01,2013-09-27 04:32:00,
2013-09-26 21:37:00,64.8,36.5,29.89,NNW,337,11.0,17.0,35,0.00,,---,0.00,VWS V14.01,2013-09-27 04:37:00,
2013-09-26 21:45:00,65.0,36.7,29.90,NNW,338,12.0,21.0,35,0.00,,---,0.00,VWS V14.01,2013-09-27 04:45:00,
2013-09-26 22:00:00,65.2,36.9,29.90,NNW,338,14.0,23.0,35,0.00,,---,0.00,VWS V14.01,2013-09-27 05:00:00,
2013-09-26 22:15:00,64.9,37.3,29.91,NNW,338,13.0,25.0,36,0.00,,---,0.00,VWS V14.01,2013-09-27 05:15:00,
2013-09-26 22:30:00,64.3,37.5,29.90,NNW,338,13.0,23.0,37,0.00,,---,0.00,VWS V14.01,2013-09-27 05:30:00,
2013-09-26 22:45:00,63.7,38.3,29.91,NNW,338,13.0,24.0,39,0.00,,---,0.00,VWS V14.01,2013-09-27 05:45:00,
2013-09-26 23:00:00,62.9,38.9,29.92,NNW,338,12.0,21.0,41,0.00,,---,0.00,VWS V14.01,2013-09-27 06:00:00,
2013-09-26 23:15:00,62.2,38.2,29.92,NNW,338,11.0,21.0,41,0.00,,---,0.00,VWS V14.01,2013-09-27 06:15:00,
2013-09-26 23:30:00,61.8,37.9,29.92,NNW,338,11.0,19.0,41,0.00,,---,0.00,VWS V14.01,2013-09-27 06:30:00,
2013-09-26 23:45:00,61.6,38.3,29.93,NNW,338,11.0,20.0,42,0.00,,---,0.00,VWS V14.01,2013-09-27 06:45:00,